Location: Hermaringen
(48.5952°N, 10.2585°E)
Time: 13:16:57
(UTC+00:00)

SR - Pass Details

Date: 16 February 2026
Orbit: 572 x 849 km, 66.7° (Epoch: 12 March)

Event Time Altitude Azimuth Distance (km) Brightness Sun altitude
Rises 13:14:48 0° 320° (NW) 3,062 ? 25.2°
Reaches altitude 10° 13:17:07 10° 315° (NW) 2,186 ? 25.0°
Maximum altitude 13:21:55 48° 242° (WSW) 969 ? 24.6°
Drops below altitude 10° 13:27:04 10° 169° (S) 2,344 ? 24.2°
Sets 13:29:38 0° 164° (SSE) 3,306 ? 24.0°
